KF8ADQ-10 Weather Reports


time (UTC)temp
C
wind
direction
speed
KPH
gust
KPH
rain 1hr
cm
rain 24hr
cm
rain mn
cm
humidity
%
barometer
mb
20260506090006 6 225 0.0 12.9 0.00 0.00 0.00 99 100.3
20260506083006 7 23 0.0 11.3 0.00 0.00 0.00 99 100.3
20260506073006 8 270 0.0 6.4 0.00 0.00 0.00 99 100.2
20260506043006 9 23 0.0 9.7 0.00 0.00 0.00 99 100.4
20260506040006 9 0 0.0 9.7 0.00 0.00 0.00 99 100.4
20260506033006 9 68 0.0 16.1 0.00 0.00 0.00 99 100.4
20260506030006 10 68 0.0 16.1 0.00 0.00 0.00 99 100.5
20260506023006 10 293 0.0 16.1 0.00 0.00 0.00 99 100.4
20260506020010 10 45 0.0 11.3 0.00 0.00 0.00 99 100.4
20260506013006 10 338 0.0 11.3 0.00 0.00 0.00 99 100.3
20260506010006 11 338 0.0 6.4 0.00 0.00 0.00 99 100.3
20260506003006 11 45 0.0 11.3 0.00 0.00 0.00 99 100.3
20260506000006 11 113 0.0 17.7 0.00 0.00 0.00 97 100.3
20260505233006 13 270 0.0 17.7 0.00 0.00 0.00 94 100.4
20260505230007 15 270 0.0 8.0 0.00 0.00 0.00 90 100.3
20260505223006 16 338 0.0 9.7 0.00 0.00 0.00 87 100.3
20260505220006 16 23 0.0 9.7 0.00 0.00 0.00 85 100.3
20260505213006 17 225 0.0 9.7 0.00 0.00 0.00 81 100.3
20260505210007 18 248 0.0 9.7 0.00 0.00 0.00 78 100.3
20260505203006 18 203 0.0 6.4 0.00 0.00 0.00 74 100.3
20260505200006 18 158 0.0 6.4 0.00 0.00 0.00 74 100.3
20260505193006 18 113 0.0 9.7 0.00 0.00 0.00 74 100.3
20260505190007 18 158 0.0 9.7 0.00 0.00 0.00 73 100.3
20260505183006 18 203 0.0 8.0 0.00 0.00 0.00 74 100.4
20260505180006 19 180 0.0 11.3 0.00 0.00 0.00 70 100.3
20260505173006 20 203 0.0 11.3 0.00 0.00 0.00 69 100.3
20260505170007 20 180 0.0 17.7 0.00 0.00 0.00 68 100.3
20260505163008 21 135 0.0 17.7 0.00 0.00 0.00 63 100.3
20260505153006 20 225 0.0 20.9 0.00 0.00 0.00 66 100.3
20260505123006 16 225 0.0 12.9 0.00 0.00 0.00 78 100.2
20260505120006 16 203 0.0 11.3 0.00 0.00 0.00 76 100.2
20260505113007 16 225 0.0 11.3 0.00 0.00 0.00 76 100.2
20260505100008 16 315 0.0 17.7 0.00 0.00 0.00 75 100.1
20260505093006 16 270 0.0 14.5 0.00 0.00 0.00 76 100.0